| Temperature (°F) | Max | Average | Min |
|---|---|---|---|
| Max Temperature | 106 | 102.87 | 97 |
| Avg Temperature | 94.9 | 90.54 | 84.85 |
| Min Temperature | 84 | 78.83 | 73 |
| Dew Point (°F) | Max | Average | Min |
|---|---|---|---|
| Dew Point | 73 | 65.92 | 50 |
| Precipitation (in) | Max | Average | Min | Sum |
|---|---|---|---|---|
| Precipitation | 0.00 | 0.00 | 0.00 | 0.00 |
| Snowdepth | 0.00 | 0.00 | 0.00 | 0.00 |
| Wind (mph) | Max | Average | Min |
|---|---|---|---|
| Wind | 20 | 5.02 | 0 |
| Gust Wind | 22 | 0.04 | 0 |
| Sea Level Pressure (in) | Max | Average | Min |
|---|---|---|---|
| Sea Level Pressure | 28.9 | 28.66 | 28.45 |
| Date | Temperature (°F) | Dew Point (°F) | Humidity (%) | Wind Speed (mph) | Pressure (in) | Precipitation (in) | ||||||||||
|---|---|---|---|---|---|---|---|---|---|---|---|---|---|---|---|---|
| Max | Avg | Min | Max | Avg | Min | Max | Avg | Min | Max | Avg | Min | Max | Avg | Min | ||
| 4/30/2024 | 106 | 94.9 | 82 | 72 | 67.1 | 55 | 70 | 42.7 | 19 | 14 | 7.4 | 0 | 28.7 | 28.6 | 28.5 | 0.00 |
| 4/29/2024 | 104 | 94.0 | 84 | 73 | 69.7 | 64 | 62 | 45.9 | 29 | 10 | 5.2 | 1 | 28.7 | 28.6 | 28.5 | 0.00 |
| 4/28/2024 | 106 | 93.9 | 81 | 70 | 65.7 | 61 | 61 | 41.2 | 23 | 13 | 4.7 | 0 | 28.7 | 28.6 | 28.5 | 0.00 |
| 4/27/2024 | 106 | 93.3 | 81 | 70 | 64.5 | 55 | 62 | 40.6 | 19 | 9 | 4.3 | 0 | 28.7 | 28.6 | 28.5 | 0.00 |
| 4/26/2024 | 106 | 92.5 | 81 | 70 | 65.8 | 55 | 70 | 43.9 | 20 | 14 | 6.9 | 1 | 28.7 | 28.6 | 28.5 | 0.00 |
| 4/25/2024 | 102 | 91.9 | 82 | 72 | 68.5 | 66 | 66 | 47.3 | 33 | 15 | 5.3 | 1 | 28.7 | 28.6 | 28.5 | 0.00 |
| 4/24/2024 | 106 | 92.8 | 82 | 72 | 67.3 | 57 | 70 | 45.5 | 24 | 15 | 6.4 | 1 | 28.7 | 28.6 | 28.5 | 0.00 |
| 4/23/2024 | 106 | 92.5 | 81 | 72 | 67.0 | 63 | 61 | 44.5 | 24 | 13 | 5.1 | 1 | 28.7 | 28.6 | 28.5 | 0.00 |
| 4/22/2024 | 106 | 93.2 | 81 | 70 | 64.2 | 54 | 65 | 40.9 | 20 | 10 | 4.8 | 0 | 28.7 | 28.6 | 28.5 | 0.00 |
| 4/21/2024 | 104 | 91.7 | 81 | 70 | 66.4 | 59 | 70 | 45.3 | 24 | 9 | 5.4 | 2 | 28.7 | 28.6 | 28.5 | 0.00 |
| 4/20/2024 | 102 | 90.3 | 77 | 70 | 66.2 | 61 | 74 | 47.4 | 27 | 14 | 5.5 | 0 | 28.7 | 28.6 | 28.5 | 0.00 |
| 4/19/2024 | 100 | 89.6 | 81 | 70 | 66.2 | 61 | 65 | 47.2 | 30 | 16 | 5.5 | 0 | 28.7 | 28.6 | 28.5 | 0.00 |
| 4/18/2024 | 102 | 90.3 | 77 | 68 | 64.0 | 61 | 69 | 43.5 | 26 | 12 | 5.0 | 0 | 28.7 | 28.6 | 28.5 | 0.00 |
| 4/17/2024 | 102 | 90.6 | 79 | 72 | 64.4 | 55 | 70 | 45.0 | 21 | 14 | 6.3 | 0 | 28.8 | 28.7 | 28.6 | 0.00 |
| 4/16/2024 | 102 | 88.4 | 75 | 68 | 66.7 | 64 | 78 | 51.3 | 29 | 18 | 5.1 | 0 | 28.8 | 28.7 | 28.6 | 0.00 |
| 4/15/2024 | 100 | 86.2 | 79 | 70 | 67.5 | 63 | 70 | 54.8 | 35 | 20 | 4.7 | 0 | 28.8 | 28.8 | 28.7 | 0.00 |
| 4/14/2024 | 100 | 89.4 | 79 | 73 | 67.0 | 63 | 69 | 48.9 | 33 | 14 | 5.6 | 0 | 28.8 | 28.7 | 28.7 | 0.00 |
| 4/13/2024 | 102 | 89.0 | 77 | 68 | 65.8 | 59 | 74 | 48.5 | 24 | 9 | 4.2 | 1 | 28.8 | 28.7 | 28.6 | 0.00 |
| 4/12/2024 | 100 | 88.9 | 79 | 72 | 68.1 | 63 | 74 | 51.8 | 33 | 20 | 4.8 | 0 | 28.8 | 28.8 | 28.6 | 0.00 |
| 4/11/2024 | 99 | 85.1 | 73 | 70 | 67.3 | 64 | 88 | 59.1 | 32 | 12 | 4.4 | 1 | 28.9 | 28.8 | 28.7 | 0.00 |
| 4/10/2024 | 97 | 84.9 | 73 | 72 | 66.9 | 63 | 88 | 57.2 | 34 | 20 | 6.1 | 0 | 28.9 | 28.8 | 28.7 | 0.00 |
| 4/9/2024 | 104 | 90.3 | 79 | 72 | 66.4 | 57 | 74 | 47.6 | 26 | 18 | 5.1 | 0 | 28.8 | 28.7 | 28.6 | 0.00 |
| 4/8/2024 | 102 | 89.8 | 79 | 72 | 68.9 | 64 | 74 | 51.6 | 29 | 9 | 3.0 | 0 | 28.8 | 28.7 | 28.6 | 0.00 |
| 4/7/2024 | 102 | 92.2 | 84 | 73 | 69.8 | 63 | 66 | 48.8 | 33 | 13 | 5.5 | 0 | 28.7 | 28.6 | 28.5 | 0.00 |
| 4/6/2024 | 104 | 91.1 | 79 | 72 | 66.2 | 63 | 65 | 45.4 | 27 | 7 | 3.6 | 0 | 28.8 | 28.6 | 28.5 | 0.00 |
| 4/5/2024 | 104 | 90.7 | 79 | 68 | 63.4 | 57 | 65 | 42.1 | 21 | 10 | 4.4 | 0 | 28.7 | 28.6 | 28.5 | 0.00 |
| 4/4/2024 | 104 | 90.8 | 77 | 68 | 63.5 | 55 | 69 | 43.4 | 20 | 8 | 3.7 | 0 | 28.8 | 28.7 | 28.6 | 0.00 |
| 4/3/2024 | 104 | 89.7 | 75 | 66 | 62.1 | 57 | 61 | 41.2 | 22 | 13 | 4.5 | 0 | 28.8 | 28.7 | 28.6 | 0.00 |
| 4/2/2024 | 102 | 89.5 | 75 | 64 | 60.5 | 50 | 65 | 39.6 | 22 | 12 | 4.3 | 0 | 28.7 | 28.6 | 28.5 | 0.00 |
| 4/1/2024 | 102 | 88.9 | 73 | 63 | 60.4 | 54 | 69 | 40.6 | 21 | 12 | 4.2 | 0 | 28.8 | 28.7 | 28.6 | 0.00 |